Location: Crescent
(42.8242°N, 73.7329°W)
Time: 20:41:08
(UTC+00:00)

Transit 2A - Pass Details

Date: 12 November 2024
Orbit: 593 x 956 km, 66.7° (Epoch: 14 December)

Event Time Altitude Azimuth Distance (km) Brightness Sun altitude
Exits shadow 10:58:16 - 256° (WSW) 3,083 8.6 -8.7°
Reaches altitude 10° 10:59:37 10° 263° (W) 2,683 8.2 -8.4°
Maximum altitude 11:04:45 26° 317° (NW) 1,803 7.5 -7.5°
Drops below altitude 10° 11:09:50 10° 12° (NNE) 2,643 8.7 -6.6°
Sets 11:12:49 0° 25° (NNE) 3,550 9.5 -6.1°
